Regional Weather Roundup
Issued by NWS

Home | Current Version | Previous Version | Text Only | Print | Product List | Glossary Off
Versions: 1 2 3 4 5 6 7 8 9 10 11 12 13 14 15 16 17 18 19 20 21 22 23 24 25 26 27 28 29 30 31 32 33 34 35 36 37 38 39 40 41 42 43 44 45 46 47 48 49 50

000
ASUS43 KFSD 022002
RWRSD

WEATHER ROUNDUP FOR SOUTH DAKOTA
NATIONAL WEATHER SERVICE SIOUX FALLS SD
300 PM CDT SUN AUG 02 2015

NOTE: "FAIR" INDICATES FEW OR NO CLOUDS BELOW 12,000 FEET WITH NO
SIGNIFICANT WEATHER AND/OR OBSTRUCTIONS TO VISIBILITY.


SDZ001>005-009-010-012>017-022100-
NORTHWEST AND NORTH CENTRAL SOUTH DAKOTA

CITY           SKY/WX    TMP DP  RH WIND       PRES   REMARKS
BUFFALO          N/A     83  46  27 NE7       29.96R
FAITH            N/A     84  46  26 N6        29.98S
MOBRIDGE       SUNNY     83  55  38 N13       29.90S
$$

SDZ012>016-024>037-041>051-057-063-072>074-022100-
SOUTHWEST AND SOUTH CENTRAL SOUTH DAKOTA

CITY           SKY/WX    TMP DP  RH WIND       PRES   REMARKS
RAPID CTY ARPT SUNNY     84  54  35 NE8       30.01S
PIERRE         SUNNY     87  53  31 NE9       29.90S
CUSTER         MOSUNNY   77  50  38 E15       30.14R
PHILIP         SUNNY     88  55  32 NE12      29.94S
PINE RIDGE     SUNNY     88  55  32 E10       29.98F
WINNER         FAIR      89  60  37 NE13      29.92R
$$

SDZ004>011-016>023-039-040-022100-
NORTHEAST SOUTH DAKOTA

CITY           SKY/WX    TMP DP  RH WIND       PRES   REMARKS
ABERDEEN       SUNNY     82  56  40 N16G24    29.87S
WATERTOWN      SUNNY     80  59  48 N17G23    29.87R
BROOKINGS      SUNNY     81  57  44 N14G21    29.87S
SISSETON         N/A     78  58  49 N14G22    29.84S
$$

SDZ017-020-022-023-036>040-048>070-022100-
SOUTHEAST SOUTH DAKOTA

CITY           SKY/WX    TMP DP  RH WIND       PRES   REMARKS
SIOUX FALLS    MOSUNNY   85  63  47 N15       29.84R
HURON          SUNNY     83  59  44 N14       29.86S
MITCHELL       SUNNY     85  63  47 N15G21    29.87R
YANKTON        SUNNY     86  66  51 N12       29.83S
$$

ABBREVIATIONS USED IN REMARKS
   TC - TEMPERATURE IN CELSIUS
  WCI - WIND CHILL INDEX
   HX - HEAT INDEX
  VSB - VISIBILITY




USA.gov is the U.S. government's official web portal to all federal, state and local government web resources and services.